GFSGL_500_spd_003.txt.gz
Wind_Speed
75 75 73 74 74 77 79 81 87 94 97 91 90 88 88 86 78 64 55 50 48 48 47 47 48 47 51 52 54 53 47 45 46 53 56 57 60 61 63 69 77 73 73
76 77 78 79 81 79 83 88 93 96 94 92 88 85 76 66 58 52 51 50 51 51 50 50 49 50 50 48 50 53 52 56 52 50 50 52 52 55 60 62 62 61 67
77 77 77 79 77 84 88 89 89 90 87 84 77 68 60 53 53 54 53 51 51 51 50 49 49 49 48 46 44 43 44 48 50 51 48 49 50 50 52 57 57 62 67
76 74 76 80 84 86 86 87 87 86 82 73 62 54 52 52 53 53 54 55 55 55 54 52 50 49 47 45 43 41 40 40 42 44 46 48 49 50 51 53 54 56 57
76 77 78 79 80 83 84 82 81 75 66 59 53 51 53 55 57 57 59 58 58 57 57 57 55 52 49 47 44 41 40 40 40 39 38 40 43 47 49 51 52 54 55
80 80 80 80 80 82 81 79 72 64 56 52 53 55 58 61 62 60 60 58 56 54 54 54 54 54 52 49 47 45 42 41 40 39 38 39 40 43 47 49 51 54 55
83 83 82 81 82 80 77 70 62 54 51 52 55 58 61 62 61 56 54 53 50 48 48 48 49 48 49 48 47 45 43 43 42 40 39 39 40 41 43 45 47 50 52
82 80 81 81 80 75 68 60 54 50 51 54 56 60 61 57 56 50 47 46 45 44 44 42 42 41 42 43 43 44 42 41 40 39 38 37 37 39 41 42 44 46 49
80 78 81 78 73 66 59 53 48 49 51 53 58 60 56 51 52 50 47 44 41 40 40 39 38 35 35 36 36 37 38 36 36 35 34 32 32 31 32 34 35 38 38
81 77 74 72 66 57 49 45 46 48 50 53 57 55 50 51 51 48 46 41 38 38 35 34 34 31 28 28 28 29 27 29 31 29 27 24 25 24 27 30 34 39 42
78 74 72 64 52 45 41 43 43 46 49 53 54 49 50 50 48 44 40 36 35 30 25 25 26 23 21 19 19 20 22 23 23 22 21 21 22 25 27 26 24 25 27
75 69 59 47 39 35 39 39 43 45 48 51 51 48 50 48 43 38 34 33 29 21 16 14 12 8 7 10 14 17 18 18 17 17 18 22 23 23 25 26 25 24 25
63 53 42 33 30 35 36 40 42 43 47 49 49 46 45 41 35 31 28 23 21 17 12 8 6 4 4 9 11 12 12 11 11 12 12 9 8 11 15 19 23 26 26
47 36 27 25 30 31 36 39 41 42 46 47 45 44 40 34 29 24 24 19 17 14 11 9 7 3 6 11 12 11 8 6 5 6 7 6 6 7 7 9 12 17 22
30 22 23 27 25 30 36 39 40 42 45 45 42 40 34 27 22 21 17 17 16 13 11 9 7 9 10 11 10 7 9 13 13 11 10 11 12 12 12 13 13 14 16
21 24 27 24 27 32 37 40 39 40 43 42 39 36 29 24 19 16 16 16 13 11 10 9 11 11 13 12 12 11 14 12 10 10 11 12 13 13 14 15 18 19 15
27 30 27 25 29 33 38 39 40 41 41 38 36 33 26 22 17 13 14 14 10 9 8 8 9 8 8 8 8 6 7 7 5 6 7 9 10 11 12 14 16 18 22
31 32 26 27 31 34 39 39 39 41 40 37 35 32 26 20 13 10 10 10 9 5 4 4 3 2 3 2 1 2 2 3 2 2 3 6 7 8 10 12 14 16 19
34 31 27 28 32 34 38 38 38 41 39 35 33 31 27 19 12 10 8 6 4 4 3 2 2 2 2 4 4 4 4 4 2 2 3 4 5 6 8 9 10 12 16
33 30 27 29 31 33 37 37 38 41 37 32 31 30 28 22 14 12 12 9 5 3 2 3 3 4 3 1 1 2 4 5 5 5 5 4 4 4 6 7 7 9 12
33 30 27 28 31 33 35 35 39 40 35 30 30 28 28 25 18 14 17 17 14 11 8 6 5 4 4 3 3 5 6 7 7 7 7 6 6 6 7 7 6 7 8
32 30 27 28 29 32 32 34 38 39 33 29 28 28 25 26 23 18 16 20 23 21 18 16 14 12 10 10 10 10 9 8 9 9 10 10 9 9 9 9 9 9 9
30 29 27 28 30 30 31 35 37 39 33 28 27 28 26 23 24 23 20 18 19 26 27 25 23 21 20 17 16 15 13 13 12 12 12 11 11 11 11 12 12 12 12
29 27 27 28 29 29 31 35 37 38 35 29 26 26 26 24 23 24 23 21 19 20 24 29 29 28 27 25 23 21 18 17 16 15 15 15 14 13 13 13 14 15 15
25 26 26 28 28 29 32 35 37 37 37 32 27 26 25 25 25 24 25 23 21 20 20 23 27 30 30 29 28 27 25 23 22 21 20 19 18 18 17 16 16 16 17
23 25 27 27 28 29 33 36 37 39 38 35 29 27 26 27 27 27 26 25 22 21 20 20 22 25 30 32 31 30 29 28 26 25 25 24 23 23 23 22 21 21 21

GFSGL_500_spd_006.txt.gz
Wind_Speed
77 80 81 83 84 82 82 81 80 80 81 83 86 87 87 83 76 68 61 53 48 46 48 51 51 51 51 50 49 47 43 44 46 44 43 44 45 54 66 69 74 69 69
80 84 84 83 82 81 81 80 80 80 81 82 83 80 75 67 59 53 49 48 48 48 49 49 49 49 49 49 49 49 47 44 43 41 50 50 46 50 60 58 57 68 77
83 82 80 81 79 78 80 80 79 79 80 81 78 70 61 55 49 49 50 52 53 53 54 55 54 54 53 53 53 49 47 44 41 39 39 43 49 49 52 52 56 56 62
83 84 79 82 80 81 79 80 79 80 78 73 65 58 52 48 50 50 52 56 57 56 55 54 55 55 56 56 55 53 50 45 41 39 37 40 42 47 52 53 53 52 52
83 85 84 87 85 81 80 81 79 76 71 63 56 50 49 51 52 54 57 57 55 52 49 49 50 50 51 53 55 53 51 48 44 39 36 36 39 42 46 49 51 52 52
86 86 87 90 93 89 85 80 75 71 62 52 46 47 49 52 56 57 55 52 50 49 46 44 43 43 45 47 49 50 49 49 45 41 38 35 35 38 40 43 45 48 49
87 89 87 81 75 73 74 74 73 60 47 42 44 47 49 54 58 57 52 51 50 48 47 45 42 40 40 41 43 43 42 45 46 42 39 36 35 35 37 38 40 43 46
87 87 81 75 73 64 71 69 55 43 40 42 45 48 50 54 57 56 54 52 49 45 42 41 40 39 39 38 36 35 37 40 41 41 37 37 37 37 37 38 40 43 44
88 81 75 70 61 61 70 50 38 40 40 42 46 48 52 53 53 53 50 47 42 39 39 39 39 37 33 31 29 27 30 33 34 36 36 35 35 35 35 36 35 39 39
83 74 67 65 52 56 54 35 37 37 41 42 44 48 51 52 51 49 44 41 39 35 34 33 31 26 22 23 22 22 23 27 28 30 31 30 29 28 29 27 28 30 32
74 68 62 47 45 44 30 31 32 37 40 41 43 46 49 48 46 41 38 32 30 30 27 23 20 16 15 15 14 15 17 21 22 22 21 21 20 20 21 21 23 25 25
68 62 51 38 33 26 26 28 33 38 40 41 44 45 46 45 39 36 30 30 28 28 26 23 18 13 8 4 3 9 13 16 15 14 14 14 15 16 20 24 25 25 27
57 46 35 27 23 27 26 29 35 39 40 41 46 43 41 39 34 29 28 29 29 27 24 22 19 16 9 5 6 9 11 11 10 9 10 11 12 11 10 10 11 14 19
44 32 26 26 31 28 27 30 36 40 41 42 45 41 38 34 29 26 25 28 27 25 23 20 16 13 10 8 8 9 10 9 7 6 7 8 7 5 3 2 4 7 10
33 28 27 31 33 29 29 31 36 40 40 42 44 39 36 31 26 22 22 25 21 21 19 17 17 16 15 12 9 9 9 12 15 14 13 11 10 9 8 8 9 11 12
30 27 29 32 32 29 29 33 36 39 39 42 40 36 35 30 26 19 19 22 18 17 15 14 13 13 13 12 12 13 15 15 14 13 13 11 10 8 7 7 8 10 13
29 29 30 32 30 28 29 33 35 37 37 41 36 32 32 28 25 17 15 18 17 14 12 10 9 10 10 10 9 7 7 7 8 8 7 7 6 6 6 7 8 9 11
29 30 29 31 30 29 30 32 35 34 37 42 34 30 29 27 22 18 13 13 14 12 10 9 8 8 9 8 6 3 0 2 3 3 2 2 2 3 3 5 6 8 10
29 30 30 30 31 29 30 31 33 32 37 40 33 28 29 27 23 19 16 13 12 11 9 8 8 8 7 7 6 5 4 4 4 4 3 3 2 1 2 3 4 5 8
30 28 28 28 29 28 29 31 30 32 36 39 33 27 27 27 24 20 16 16 15 14 11 9 7 6 6 6 5 4 5 6 7 7 7 6 6 5 5 4 4 5 6
27 27 27 27 28 28 28 30 28 32 36 38 35 28 26 26 24 22 19 17 17 20 19 16 13 10 8 7 6 7 7 7 8 9 9 9 9 9 9 8 7 7 8
27 27 26 27 26 26 28 27 28 33 36 37 37 30 25 24 24 23 22 20 18 18 22 25 23 20 17 14 13 12 12 12 11 10 11 11 12 13 13 12 11 11 11
28 27 26 24 25 26 27 27 29 33 36 38 37 35 28 23 23 23 24 23 21 19 19 22 27 29 27 25 22 20 18 17 17 16 14 14 13 14 14 14 14 14 14
26 24 22 23 24 26 26 27 30 33 35 37 37 36 30 25 23 24 25 25 25 23 21 20 22 25 30 31 29 28 26 24 23 21 20 19 18 17 16 16 15 15 16
23 20 22 25 27 27 27 28 30 32 34 37 36 36 31 25 23 24 27 27 27 25 23 22 21 21 23 27 30 30 29 29 28 27 26 24 23 23 22 21 20 20 20
20 21 25 27 29 28 28 29 30 32 34 36 36 37 30 25 24 25 29 29 28 27 24 22 21 21 20 21 24 28 30 31 30 30 30 29 28 28 27 27 26 26 26

GFSGL_500_spd_009.txt.gz
Wind_Speed
73 77 81 85 86 85 81 81 82 81 81 80 77 77 78 76 73 68 63 55 47 45 47 48 47 48 48 48 49 50 50 49 47 40 41 40 43 42 41 43 55 72 57
76 80 83 86 86 84 81 81 83 83 78 73 73 70 69 67 62 57 49 44 45 48 49 51 53 54 54 54 54 54 54 53 49 41 38 40 41 46 44 45 45 51 71
81 84 88 88 87 88 88 93 91 88 79 77 72 73 67 59 52 43 41 43 47 50 53 55 54 53 52 53 55 56 56 56 54 48 41 37 41 43 48 51 52 52 53
86 88 89 89 91 93 93 89 82 64 74 71 69 69 53 44 38 40 44 46 50 53 53 51 49 48 48 48 48 51 53 54 56 53 47 42 38 41 43 48 54 51 56
87 90 92 90 91 89 84 80 50 66 72 68 71 51 40 38 41 44 46 50 53 52 50 47 47 46 46 47 46 43 41 46 48 51 50 45 41 41 40 42 49 53 52
89 91 91 91 89 84 73 53 55 68 66 58 63 46 42 42 44 47 50 52 51 49 47 46 47 46 46 45 46 43 40 37 40 44 48 46 42 42 40 40 42 47 52
91 90 92 90 84 74 67 49 59 66 54 61 46 45 45 44 46 51 52 50 48 46 45 44 42 42 41 41 40 39 37 35 34 38 43 43 42 41 39 38 38 40 41
90 91 90 85 73 65 57 51 52 51 52 38 40 44 43 46 50 51 49 45 43 41 40 40 38 37 38 37 36 35 34 32 31 33 37 38 40 40 39 36 36 37 39
90 91 84 71 65 59 45 38 43 36 28 34 40 41 42 48 48 46 42 40 34 36 35 35 34 31 28 27 26 24 24 27 27 28 32 34 37 38 38 35 33 34 35
92 84 72 64 56 45 34 26 23 25 29 36 39 40 43 46 45 41 38 30 30 34 35 35 33 29 24 21 16 15 17 21 23 25 28 29 31 33 34 34 34 34 33
84 71 63 54 41 29 25 27 25 25 32 37 39 40 45 44 43 37 31 29 32 33 32 30 29 26 21 17 12 10 12 16 19 20 22 23 25 26 28 28 28 28 28
73 63 51 41 29 26 30 30 25 28 34 39 40 41 46 42 40 34 28 29 32 31 30 29 26 21 16 12 9 3 4 8 11 13 14 16 17 18 19 19 19 21 23
63 52 43 32 28 29 31 29 26 30 34 39 39 41 42 38 37 32 26 27 29 28 28 26 21 20 17 14 9 6 7 10 11 11 11 12 12 13 14 14 13 13 14
54 44 37 30 28 32 31 28 27 31 34 39 37 42 40 36 34 29 23 23 25 23 23 21 21 22 22 16 10 8 9 10 10 9 8 8 9 8 8 8 5 3 2
47 38 33 29 29 31 30 27 27 30 33 36 37 42 38 34 32 26 19 18 20 18 18 18 19 21 20 18 13 10 9 9 11 13 13 12 12 13 13 11 8 5 4
39 33 31 28 28 29 27 26 28 31 33 33 36 42 36 33 31 27 22 16 17 16 15 15 15 17 17 15 13 12 12 12 12 12 12 12 12 11 9 8 6 5 4
32 31 30 28 28 28 27 26 26 30 32 31 35 39 34 29 29 26 20 15 15 15 14 13 13 14 14 12 10 7 6 6 8 9 8 8 8 7 7 6 5 4 3
30 28 31 27 26 28 26 25 26 28 27 30 34 36 33 27 28 25 22 17 14 13 13 12 12 11 10 10 8 5 2 1 4 5 5 4 5 5 5 4 3 1 1
30 28 29 26 26 27 25 24 25 27 26 30 33 36 34 28 25 25 22 18 16 15 14 13 12 10 9 8 6 5 3 3 4 6 6 5 5 6 5 4 4 4 3
29 27 25 24 26 26 23 22 25 25 27 30 33 35 36 32 25 24 23 20 18 16 18 17 15 13 10 7 6 6 6 6 6 7 8 8 8 8 8 8 7 7 7
27 26 25 26 26 25 21 21 23 24 27 30 33 34 35 33 27 22 23 22 20 18 18 20 22 20 17 14 11 8 7 7 7 8 9 10 11 12 12 11 11 11 11
28 28 27 25 23 20 20 22 23 25 28 31 32 34 35 33 29 24 22 23 23 22 20 19 22 25 26 24 21 17 15 13 12 11 11 11 12 13 14 15 15 15 15
29 27 25 21 19 20 22 23 24 25 28 30 32 34 34 33 28 24 22 22 24 25 24 22 21 24 26 29 30 29 25 22 20 18 17 16 15 15 14 14 15 16 17
25 23 20 19 20 22 24 24 24 26 28 29 30 32 33 32 28 24 22 22 24 26 27 25 23 22 24 26 28 31 33 31 28 26 25 23 22 20 19 18 17 17 18
22 22 22 22 24 25 25 26 24 25 28 29 29 30 32 32 30 25 23 24 25 27 28 27 25 23 23 23 25 26 29 31 32 31 29 28 27 27 25 24 23 22 22
24 25 26 27 28 28 27 26 25 26 27 27 28 28 30 32 31 27 25 26 28 29 29 28 26 23 22 22 22 23 24 26 29 31 31 31 30 29 29 29 28 28 28

GFSGL_500_spd_012.txt.gz
Wind_Speed
67 71 75 79 83 85 88 89 89 89 93 90 91 88 78 62 62 72 66 63 50 46 45 45 46 48 50 52 53 54 55 55 57 53 48 44 44 48 48 45 43 41 39
71 74 79 83 87 90 91 93 94 92 96 89 77 77 66 65 67 63 64 46 45 43 45 47 49 51 53 56 58 58 58 59 60 58 57 52 48 47 49 48 44 42 41
74 79 83 88 91 92 93 95 94 93 86 71 70 55 63 69 72 66 53 49 50 50 50 52 55 57 57 57 55 54 54 54 57 57 57 59 56 51 46 49 47 48 43
80 83 87 90 91 92 94 94 92 82 75 67 56 55 69 71 62 50 49 51 51 53 56 57 56 55 54 53 52 51 49 47 48 49 48 54 57 55 49 47 49 46 51
83 86 89 92 93 95 96 94 82 74 67 54 45 60 62 48 42 47 48 50 53 55 54 50 50 49 48 48 49 48 47 45 44 45 42 46 52 54 53 48 45 48 51
85 88 91 92 93 95 94 88 73 65 53 47 48 52 39 39 45 46 48 52 52 50 47 43 39 40 41 42 42 42 40 40 42 44 43 41 44 49 52 48 46 46 49
86 88 90 91 93 95 87 72 58 48 42 38 37 32 36 41 44 45 51 50 49 45 40 40 41 43 42 40 40 39 37 37 37 37 39 37 39 46 47 45 46 45 44
86 88 89 92 94 87 71 55 44 30 34 34 31 33 39 42 44 48 49 48 43 38 39 42 43 42 40 37 38 32 30 33 35 34 33 34 36 39 42 42 44 42 40
85 87 90 91 86 70 56 42 29 28 31 31 31 35 40 42 43 48 44 41 35 35 39 41 41 38 35 32 32 26 22 24 27 29 30 30 31 34 37 39 41 39 35
86 88 91 84 71 57 45 32 29 32 33 32 34 38 41 42 46 46 43 36 31 33 36 37 37 35 30 25 25 22 17 17 16 18 22 24 26 30 33 35 37 35 33
86 89 85 71 57 48 38 31 32 34 34 32 35 39 41 41 47 43 42 33 27 30 31 31 31 31 29 25 22 19 12 12 11 11 13 17 21 24 26 29 31 31 32
86 86 73 58 49 41 34 29 32 35 32 31 35 39 39 41 46 40 40 31 25 26 27 27 28 30 31 26 23 19 12 5 1 6 10 14 15 17 19 23 26 28 29
83 76 64 52 43 37 32 31 34 34 31 31 35 38 37 41 43 37 38 30 23 24 24 24 26 28 29 27 22 19 14 8 7 8 10 11 13 14 16 17 20 22 24
74 67 56 45 38 34 31 30 33 32 30 32 34 36 36 39 40 34 35 29 22 22 21 21 22 25 25 23 20 15 12 9 8 9 10 11 12 13 14 15 17 19 19
67 59 50 38 33 32 31 30 31 31 30 31 33 32 35 37 39 32 33 28 21 18 18 17 19 21 22 20 18 17 15 10 8 6 7 8 9 10 11 12 12 11 10
60 51 43 34 32 31 30 29 31 31 29 30 31 31 34 36 37 32 31 29 23 18 16 15 16 16 18 17 15 13 13 11 10 10 10 11 12 12 11 11 10 9 8
53 44 37 32 29 29 28 28 30 30 29 29 29 30 34 35 35 33 28 27 23 18 16 15 14 14 14 13 12 10 9 8 7 7 7 8 7 7 8 7 7 6 5
45 38 32 30 28 26 25 27 28 26 27 28 29 31 33 34 34 32 27 25 24 20 16 16 14 13 13 11 9 7 6 6 4 2 2 2 3 5 6 7 7 7 5
40 33 29 27 26 26 27 26 27 25 25 26 28 31 33 33 34 32 28 23 23 21 19 18 18 16 14 12 9 7 5 5 5 6 6 5 5 5 7 8 9 8 7
36 30 28 28 28 27 26 25 23 23 25 26 28 31 32 33 33 32 30 24 22 22 21 19 20 20 19 16 13 10 8 7 7 8 9 9 10 10 10 10 10 10 10
35 30 28 28 27 24 22 21 22 24 25 26 28 30 31 32 33 32 30 26 22 22 23 22 20 21 23 23 21 18 15 11 9 9 9 11 11 12 14 14 14 14 13
33 29 28 26 23 19 19 20 22 24 24 25 27 28 30 31 32 32 30 27 24 23 24 24 23 22 21 25 27 27 25 22 18 15 14 12 12 13 14 16 17 17 17
31 28 25 23 20 20 21 24 25 25 25 25 26 27 28 29 31 31 31 28 26 25 24 24 25 26 24 23 26 28 31 31 29 25 22 20 18 17 17 17 17 18 17
28 25 23 21 21 22 25 28 29 27 26 25 25 26 27 27 29 31 31 30 28 27 28 28 28 28 27 25 24 26 28 31 34 34 32 29 26 24 23 22 21 20 19
27 26 25 25 26 27 28 29 29 28 27 24 25 25 26 26 27 28 31 32 30 29 30 30 28 28 27 26 25 24 25 26 29 33 35 35 34 32 30 28 27 26 25
26 26 27 28 29 30 30 31 30 28 27 25 24 25 25 25 26 27 28 30 33 32 31 31 30 29 28 26 25 24 24 24 24 26 30 33 35 35 34 33 32 31 30

GFSGL_500_spd_015.txt.gz
Wind_Speed
59 63 67 71 76 80 85 88 92 96 98 98 99 101 95 83 72 76 70 56 65 72 69 53 50 52 52 52 53 54 55 58 58 56 54 53 54 53 51 50 49 47 45
64 66 70 76 79 84 88 90 94 96 97 99 101 95 82 72 67 63 60 57 62 54 49 51 52 53 55 57 58 58 59 60 62 62 59 56 57 58 57 54 51 47 46
65 69 74 78 81 85 90 93 95 98 98 99 97 81 69 64 56 52 59 61 51 50 51 52 54 57 55 54 53 52 53 54 56 57 56 54 55 55 58 58 54 49 46
68 72 76 81 86 90 92 95 98 98 100 97 79 64 55 45 42 41 38 46 48 50 53 55 54 52 49 44 42 44 45 46 49 53 52 53 52 51 52 57 57 52 47
71 76 80 86 89 90 92 95 94 98 94 77 59 47 39 35 35 40 45 48 48 52 52 52 48 44 44 46 47 47 47 48 47 47 47 50 50 48 47 49 54 54 48
75 80 85 88 89 91 94 94 96 91 72 56 44 35 32 33 38 43 47 47 50 50 50 47 43 43 47 48 49 47 46 45 45 44 43 42 44 46 44 43 46 50 48
80 83 86 86 88 90 92 93 88 68 53 42 39 38 36 35 40 45 48 47 53 48 47 42 40 44 46 46 46 44 42 41 41 37 34 35 35 40 43 40 38 45 45
84 85 85 87 88 90 91 87 72 55 44 37 37 38 37 37 42 46 46 48 48 45 42 37 40 40 41 43 42 40 37 36 35 29 27 30 31 34 38 38 36 38 41
84 83 86 88 89 88 86 74 58 48 40 36 37 37 36 38 43 45 44 48 42 40 35 36 37 37 40 42 39 35 31 30 25 21 20 25 29 29 31 32 32 34 37
81 84 87 90 88 86 77 62 49 42 37 34 36 37 36 39 43 43 44 46 39 37 32 33 33 35 38 40 38 33 27 22 17 13 10 14 21 25 26 27 27 30 36
83 86 90 88 85 77 66 53 43 38 34 34 37 37 36 39 43 42 45 44 36 32 27 29 29 33 36 37 36 32 28 21 13 8 4 8 13 18 20 21 25 29 31
86 89 86 83 77 68 58 45 38 35 33 33 36 36 36 38 40 41 44 42 35 30 25 26 27 29 33 34 33 30 27 20 15 8 2 4 7 10 13 16 19 23 27
88 85 81 76 67 60 51 39 36 34 33 34 36 37 36 38 38 40 42 40 35 32 23 24 24 26 29 30 28 29 24 19 14 10 6 6 7 9 11 14 17 21 23
83 79 74 67 60 53 43 36 35 33 32 33 35 36 35 37 37 39 40 39 34 32 25 23 23 23 24 26 23 23 24 20 14 10 7 7 7 8 10 12 15 17 20
78 74 67 60 53 46 38 35 33 31 30 31 33 33 34 34 36 38 38 38 32 29 27 21 22 21 21 21 21 19 18 18 16 11 6 4 5 7 8 9 10 12 14
73 66 60 53 46 39 35 32 30 28 28 30 31 31 32 32 35 37 37 37 32 27 26 22 19 19 18 18 19 17 16 15 14 13 11 10 9 9 10 10 10 11 12
66 59 53 47 41 35 31 28 28 29 28 28 29 29 30 32 34 35 35 35 32 26 24 22 19 18 17 15 15 15 12 11 10 10 9 8 8 8 8 10 11 11 11
59 53 47 42 37 33 31 30 29 28 29 28 28 29 30 32 33 34 33 34 32 27 23 22 21 18 18 16 13 12 11 8 7 6 5 4 3 3 3 4 6 7 6
52 47 42 38 34 32 31 30 28 26 25 25 28 29 29 31 32 33 33 32 31 28 24 22 21 21 19 19 17 13 12 11 8 6 6 5 2 1 2 2 3 4 4
47 42 39 35 33 31 30 28 25 22 23 26 28 29 29 30 31 31 32 32 31 28 25 23 23 23 22 19 20 20 16 13 11 11 10 9 8 8 8 7 7 7 8
42 38 35 31 30 28 27 24 22 23 25 28 29 28 28 29 30 30 31 31 31 30 28 26 25 23 22 21 20 21 24 21 17 14 13 12 12 13 13 13 13 12 12
39 35 31 28 28 26 25 23 24 26 28 30 31 29 28 29 29 29 30 31 31 31 30 29 28 27 27 26 25 23 22 26 27 24 21 18 16 16 16 16 16 17 17
36 31 28 26 26 26 26 26 27 28 29 30 30 30 28 28 28 27 28 29 30 31 32 31 30 30 29 28 27 26 25 24 27 32 31 28 24 22 20 20 19 19 19
31 28 26 26 26 28 29 30 30 31 31 32 32 31 29 28 27 26 27 28 29 30 32 33 32 31 30 29 27 26 25 24 25 27 33 36 34 31 29 26 24 23 22
28 26 25 24 25 27 29 30 32 31 30 30 30 30 30 29 27 27 27 27 28 29 30 32 34 34 32 30 28 26 25 25 24 25 27 31 36 38 37 35 33 31 29
27 26 27 28 29 31 32 33 33 34 33 32 31 31 31 30 28 27 27 28 29 29 29 31 33 35 36 32 30 29 26 24 24 24 24 25 29 32 37 39 39 37 36

GFSGL_500_spd_018.txt.gz
Wind_Speed
55 57 59 60 64 68 72 77 84 89 92 94 97 99 101 103 98 80 65 57 49 45 44 42 42 46 50 51 54 55 55 57 58 51 51 47 49 51 52 52 50 48 44
57 59 61 65 69 72 77 82 88 90 93 95 97 101 100 94 74 59 50 37 35 40 46 46 47 48 52 52 53 53 50 49 51 49 44 44 47 50 55 56 55 53 51
58 61 63 68 72 77 82 88 90 91 95 98 100 98 93 72 53 44 35 36 38 44 48 48 47 52 49 50 46 43 44 47 50 53 46 45 42 43 50 53 54 56 55
59 62 67 72 76 82 86 88 90 93 96 99 96 89 70 53 41 37 38 39 43 48 51 50 54 50 49 43 41 44 48 50 51 52 51 47 45 45 45 48 51 52 53
61 65 71 75 80 84 87 89 92 95 98 94 86 70 55 44 38 39 40 42 46 50 51 53 51 50 43 42 44 43 45 48 47 46 46 44 43 43 44 45 48 49 49
64 69 76 80 84 88 89 89 95 96 91 84 70 57 46 39 40 41 41 43 47 50 49 52 47 44 39 41 42 45 48 49 45 42 37 36 37 40 44 42 43 44 43
69 74 78 83 87 88 89 94 94 90 83 69 57 46 39 37 40 39 40 43 48 48 51 47 44 37 37 38 42 47 48 47 42 36 31 33 34 34 33 33 35 39 39
73 78 82 85 86 87 94 92 89 82 71 59 47 40 36 37 38 38 39 43 45 46 48 43 40 34 36 37 42 45 46 42 37 30 29 25 24 23 21 25 27 31 31
76 81 84 85 86 93 91 88 82 70 61 50 40 36 35 35 36 38 40 44 43 46 44 41 35 33 34 36 42 42 42 38 33 25 21 18 16 17 20 20 21 26 28
80 82 83 85 92 91 88 83 71 61 53 42 37 35 34 34 36 37 40 41 41 44 39 38 33 31 32 34 40 40 39 35 30 22 16 13 9 13 18 18 18 22 26
82 82 85 90 92 89 82 71 62 54 46 38 36 34 33 34 35 37 40 39 41 41 37 33 29 28 30 33 37 37 37 32 29 22 14 10 6 3 8 13 14 18 22
82 83 90 91 90 82 71 62 54 48 40 36 35 34 31 32 34 36 37 39 41 40 37 31 27 25 27 29 33 33 33 31 27 23 17 12 7 2 4 8 12 17 23
81 88 90 91 82 72 62 56 48 42 38 35 34 31 30 31 33 34 36 39 40 40 37 29 27 23 25 26 27 29 29 28 25 21 17 12 9 7 7 9 12 16 20
86 88 89 81 72 64 56 48 42 38 36 33 30 28 29 31 32 33 36 38 38 39 36 29 27 22 21 23 23 24 25 24 23 19 14 12 8 7 7 8 11 14 18
87 87 79 71 65 58 50 43 38 35 32 29 29 28 29 29 31 33 35 36 36 37 35 28 26 26 21 20 19 20 21 21 20 19 16 10 7 6 7 8 9 12 15
85 77 70 66 60 53 45 39 35 33 32 30 29 28 27 28 30 32 34 35 35 35 34 28 24 24 22 19 18 18 17 17 17 15 14 13 10 6 4 5 7 9 10
77 71 65 61 56 48 41 37 33 32 31 29 27 25 25 27 30 32 32 33 34 34 32 28 22 22 21 19 17 16 16 15 13 12 11 9 9 9 9 8 7 9 11
70 68 61 57 51 43 38 35 31 29 29 27 23 23 26 28 29 30 31 31 32 32 32 28 25 22 21 20 18 17 15 13 12 10 9 6 4 4 6 7 8 9 10
68 63 56 52 46 39 35 32 29 27 25 23 23 25 27 28 29 30 30 29 30 31 31 29 26 23 22 21 19 17 17 16 13 11 9 8 5 1 2 4 5 6 7
64 56 52 47 41 36 31 28 27 25 23 22 24 27 29 30 30 30 30 29 28 30 30 30 29 26 24 22 21 20 18 18 18 16 13 11 10 9 7 7 7 8 8
59 52 48 42 36 32 29 26 25 25 25 26 28 29 29 29 30 30 29 28 27 27 29 30 31 30 28 26 23 22 21 20 19 22 20 17 15 14 13 13 13 12 12
54 47 43 37 32 29 27 26 26 27 28 29 30 31 30 30 30 30 30 28 26 26 27 29 30 32 32 30 27 25 23 21 21 21 25 26 22 19 17 18 18 18 18
48 43 38 33 29 27 26 26 27 28 29 30 31 30 30 29 29 29 30 29 26 25 25 26 29 31 32 33 30 28 25 23 21 21 23 27 31 29 25 22 22 22 22
44 39 34 30 28 27 27 27 28 29 30 31 31 31 31 31 29 30 30 30 27 26 26 26 27 29 32 33 34 31 28 26 24 23 22 24 27 34 35 32 29 26 25
41 35 32 30 29 31 32 33 34 35 35 34 34 34 34 32 31 31 31 30 29 27 26 26 27 28 30 33 34 36 32 29 26 23 23 23 25 27 32 37 38 35 32
40 35 32 31 32 34 36 37 37 37 37 37 36 36 36 35 32 32 33 32 30 29 28 27 27 28 29 31 33 35 35 31 28 24 22 21 22 24 26 29 35 38 39

GFSGL_500_spd_021.txt.gz
Wind_Speed
50 54 57 58 58 59 61 66 71 77 82 87 91 93 97 100 102 99 85 67 52 46 39 38 40 44 46 47 50 53 50 52 52 41 43 42 42 44 45 49 52 52 48
52 56 57 57 58 60 65 70 77 81 87 89 91 95 100 101 94 79 63 49 43 41 39 41 43 47 48 49 52 49 48 44 45 43 42 44 46 46 45 44 45 50 54
54 58 58 58 59 64 70 75 80 84 86 88 93 99 100 94 77 62 50 42 39 39 39 42 46 48 47 51 46 46 40 43 45 45 42 46 47 46 46 47 46 43 47
57 58 58 59 63 69 73 78 82 84 87 94 98 100 90 74 62 50 43 39 39 39 40 43 48 49 50 47 46 38 40 41 45 49 48 48 47 44 44 45 46 45 43
58 58 59 62 67 71 76 80 83 86 92 97 99 87 72 62 52 43 39 37 39 39 41 45 47 48 49 46 40 38 39 43 47 49 49 46 42 40 39 40 41 43 43
59 58 60 65 69 74 78 82 86 90 94 97 87 72 62 53 43 39 37 38 38 38 40 43 45 47 44 42 36 37 40 45 47 49 45 42 37 35 32 33 36 39 38
58 59 63 68 73 77 80 85 89 93 94 86 74 64 55 44 38 36 35 34 35 38 41 41 43 46 41 36 33 36 41 45 47 46 41 36 29 29 30 32 35 38 37
59 63 67 72 76 80 84 87 91 93 83 76 65 56 47 38 35 34 33 33 36 38 39 41 41 42 39 32 32 34 40 42 45 41 36 30 25 24 23 23 24 25 25
64 68 72 75 78 83 87 90 92 82 76 67 58 50 41 36 34 33 32 33 35 37 39 40 41 38 35 28 30 33 38 40 43 37 31 26 22 19 16 13 13 14 18
69 71 75 79 82 86 90 94 84 76 70 61 51 44 37 34 33 31 30 32 34 36 38 39 39 33 32 27 28 30 34 37 39 34 29 23 18 14 8 8 10 11 14
72 76 79 82 88 88 90 88 77 72 65 55 46 39 34 32 29 28 29 31 33 35 36 36 35 30 29 24 26 29 32 34 35 32 27 22 15 10 5 6 9 10 13
75 78 82 87 87 87 89 78 72 66 58 48 40 35 30 27 26 28 28 31 33 34 35 34 34 28 27 22 23 26 29 31 32 31 25 21 15 8 2 2 6 9 14
74 78 82 86 86 87 82 73 68 60 50 42 35 31 28 27 27 26 27 30 33 34 34 33 32 27 25 23 21 24 26 27 29 28 24 19 14 10 5 2 5 8 11
76 79 83 83 85 86 73 70 61 52 43 37 32 31 29 27 26 24 26 30 32 33 34 33 31 26 22 22 19 20 21 23 25 25 23 18 14 10 6 3 3 6 9
77 77 80 84 87 75 69 62 54 44 38 34 31 30 27 25 22 23 26 28 30 31 32 32 31 27 24 23 21 18 18 20 20 21 21 18 14 9 6 4 4 6 9
78 80 82 84 75 68 65 55 47 39 35 32 30 27 24 21 21 23 24 26 29 29 31 31 30 26 23 21 22 19 17 17 17 17 17 16 14 10 5 2 4 6 9
80 80 77 74 67 63 58 49 40 35 32 30 27 23 20 19 21 22 24 25 27 28 29 30 29 26 23 22 19 19 17 16 16 15 14 13 11 9 7 3 3 6 9
77 75 72 67 62 58 50 42 36 31 29 27 23 19 19 20 22 24 24 25 26 27 27 28 29 28 25 22 20 18 17 15 15 15 13 11 9 6 4 5 6 7 9
73 69 66 62 58 52 44 38 32 28 26 24 22 21 21 23 25 24 24 25 25 26 26 26 28 28 28 25 22 20 18 17 16 16 15 12 10 8 4 2 4 6 8
69 65 62 57 53 46 40 35 30 27 25 24 24 25 24 25 26 26 25 25 25 25 25 25 26 27 28 29 26 22 19 18 18 17 19 18 14 11 11 9 8 9 10
63 60 57 54 49 42 37 32 28 25 24 25 27 27 27 28 28 28 27 25 24 24 25 25 24 25 27 29 29 27 23 20 19 19 19 20 22 18 15 15 15 14 14
59 57 54 52 45 39 34 29 26 24 24 24 26 27 27 28 28 28 27 25 23 24 24 25 24 23 24 26 29 29 28 24 21 19 19 22 22 26 23 20 20 21 20
58 56 53 49 41 36 31 29 26 26 27 29 30 31 32 31 29 28 27 27 25 24 24 25 24 24 25 25 26 29 30 29 25 22 19 19 22 24 29 29 25 24 25
57 55 51 48 39 35 32 30 30 31 32 32 32 33 33 33 32 31 30 29 27 26 25 25 25 25 25 24 25 27 29 31 31 26 21 18 19 22 26 31 34 31 29
56 53 49 46 38 35 34 32 31 31 32 32 32 32 34 34 34 34 33 31 30 29 27 25 25 24 25 24 24 26 28 29 31 31 26 21 18 18 22 26 30 37 37
52 49 47 43 37 35 35 35 34 33 33 33 33 33 33 33 33 33 33 33 30 30 29 25 24 24 24 25 25 26 27 28 29 30 30 25 21 19 18 20 25 29 35